[[{"header":{"parameterUnit":"m.s-1","parameterCategory":1,"la1":30.2991,"la2":30.254,"lo1":-89.0895,"lo2":-89.0444,"dy":0.0017,"dx":0.0017,"nx":28,"ny":28,"refTime":"2024-03-12T09:00:00:Z","depth":0,"parameterNumber":2,"parameterNumberName":"U-component_of_WINDS"},"data":[0,0,0,0,0,0,0,0,0,0,0,0,0,0,0,0,0,0,0,0,0,0,0,0,0,0,0,0,0,0,0,0,0,0,0,0,0,0,0,0,0,0,0,0,0,0,0,0,0,0,0,0,0,0,0,0,0,0,-0.5854,-0.5854,0,-0.5867,-0.5868,-0.5868,-0.5852,-0.5851,-0.585,-0.585,-0.5866,-0.5867,-0.5867,0,0,0,0,0,0,0,0,0,0,0,0,0,-0.5816,-0.5817,-0.5854,-0.5854,-0.5854,-0.5867,-0.5868,-0.5868,-0.5852,-0.5851,-0.585,-0.585,-0.5865,-0.5866,-0.5868,0,0,0,0,0,0,0,0,0,0,0,0,0,-0.5832,-0.5817,-0.5854,-0.5848,-0.5847,-0.5867,-0.5868,-0.5868,-0.5852,-0.5851,-0.585,-0.5849,-0.5865,-0.5866,-0.5868,-0.5895,0,0,-0.5872,-0.5873,0,0,0,0,0,0,0,0,-0.5831,-0.5833,-0.5848,-0.5848,-0.5848,-0.5857,-0.586,-0.5877,-0.5852,-0.585,-0.585,-0.5849,-0.5864,-0.5865,-0.587,-0.5896,-0.5896,-0.5872,-0.5873,-0.5874,-0.5874,0,0,0,0,0,0,0,-0.583,-0.5832,-0.5859,-0.5849,-0.5848,-0.5845,-0.5846,-0.5863,-0.5862,-0.585,-0.5849,-0.5851,-0.5863,-0.5868,-0.587,-0.5897,-0.5872,-0.5874,-0.5875,-0.5875,-0.5947,-0.5948,0,0,0,0,0,0,-0.5829,-0.5832,-0.5859,-0.586,-0.5837,-0.5846,-0.5848,-0.5855,-0.5862,-0.5862,-0.5852,-0.585,-0.5866,-0.5868,-0.587,-0.5904,-0.5874,-0.5875,-0.5876,-0.5946,-0.5947,-0.5949,0,0,0,0,0,0,-0.5828,-0.5832,-0.5858,-0.5845,-0.5848,-0.5848,-0.5856,-0.5856,-0.5861,-0.5863,-0.5862,-0.5857,-0.5866,-0.5868,-0.5889,-0.5904,-0.5876,-0.5877,-0.5945,-0.5947,-0.5948,-0.597,0,0,0,0,0,0,-0.5827,-0.5831,-0.5841,-0.5846,-0.5849,-0.5876,-0.5857,-0.5857,-0.5863,-0.5861,-0.5868,-0.5868,-0.5865,-0.5887,-0.5891,-0.5905,-0.5878,-0.5944,-0.5946,-0.5947,-0.5968,-0.5972,-0.5976,0,0,0,0,0,-0.5826,-0.5847,-0.5842,-0.5845,-0.5861,-0.5877,-0.5879,-0.5875,-0.5864,-0.5875,-0.5876,-0.5868,-0.5902,-0.5889,-0.5893,-0.5909,-0.5943,-0.5945,-0.5947,-0.5966,-0.5971,-0.5975,0,0,0,0,0,0,-0.5845,-0.5848,-0.5842,-0.5865,-0.5871,-0.5874,-0.5887,-0.588,-0.589,-0.5888,-0.5883,-0.5885,-0.5907,-0.591,-0.5896,-0.5936,-0.5921,-0.5924,-0.5934,-0.5938,-0.5942,-0.5941,-0.588,0,0,0,0,0,-0.5852,-0.5864,-0.5865,-0.5886,-0.5889,-0.5888,-0.5894,-0.5891,-0.5897,-0.59,-0.5902,-0.591,-0.5922,-0.593,-0.5942,-0.5968,-0.597,-0.5981,-0.5985,-0.5988,-0.5991,-0.6006,-0.6011,-0.5956,-0.5956,-0.5956,0,0,-0.5866,-0.5869,-0.5877,-0.5889,-0.5894,-0.5907,-0.589,-0.5904,-0.5915,-0.5902,-0.5922,-0.5924,-0.5932,-0.5956,-0.5967,-0.5959,-0.6006,-0.5991,-0.5993,-0.5995,-0.6009,-0.6014,-0.6019,-0.5958,-0.5957,-0.5957,0,0,-0.5899,-0.5902,-0.5919,-0.5924,-0.5931,-0.593,-0.5934,-0.5939,-0.594,-0.5959,-0.5951,-0.5963,-0.5984,-0.599,-0.5996,-0.6032,-0.6025,-0.6036,-0.6056,-0.6071,-0.6076,-0.6079,-0.6093,-0.6098,-0.6039,-0.6039,-0.6039,0,-0.5916,-0.5935,-0.593,-0.5945,-0.5951,-0.594,-0.5958,-0.5963,-0.5974,-0.5979,-0.597,-0.5996,-0.6001,-0.6027,-0.6035,-0.604,-0.6046,-0.6035,-0.6075,-0.6079,-0.6083,-0.6096,-0.6101,-0.604,-0.604,-0.604,-0.604,0,-0.5957,-0.597,-0.5983,-0.5993,-0.6001,-0.6018,-0.6016,-0.6024,-0.602,-0.602,-0.6041,-0.6046,-0.6059,-0.6064,-0.606,-0.609,-0.6085,-0.6076,-0.606,-0.6089,-0.6102,-0.6107,-0.6042,-0.6042,-0.6041,-0.6041,0,0,-0.6003,-0.6009,-0.6014,-0.6019,-0.6025,-0.6036,-0.6052,-0.6064,-0.6072,-0.608,-0.6095,-0.6113,-0.6104,-0.6111,-0.6108,-0.6121,-0.6151,-0.611,-0.611,-0.6118,-0.6185,-0.6193,-0.6198,-0.6146,-0.6147,-0.6147,-0.6185,0,-0.6036,-0.6065,-0.606,-0.6088,-0.6101,-0.609,-0.6105,-0.6111,-0.6112,-0.6124,-0.6125,-0.6138,-0.6126,-0.613,-0.6142,-0.6144,-0.6164,-0.6141,-0.616,-0.6161,-0.616,-0.6205,-0.6213,-0.6248,-0.6189,-0.619,-0.6191,0,-0.608,-0.6089,-0.6117,-0.6123,-0.6128,-0.6141,-0.6152,-0.6163,-0.617,-0.617,-0.6177,-0.6172,-0.619,-0.6173,-0.6198,-0.6183,-0.6191,-0.6193,-0.6194,-0.6197,-0.6178,-0.6209,-0.6259,-0.6264,-0.6198,-0.6197,-0.6197,0,-0.6112,-0.6131,-0.6151,-0.6155,-0.6161,-0.6171,-0.6174,-0.618,-0.6188,-0.6197,-0.6202,-0.6214,-0.6221,-0.6231,-0.6229,-0.6217,-0.6255,-0.6238,-0.6257,-0.6257,-0.6266,-0.6265,-0.6318,-0.6269,-0.6269,-0.6269,-0.6269,0,-0.6151,-0.6169,-0.6165,-0.6178,-0.6198,-0.6193,-0.6214,-0.6216,-0.6221,-0.6235,-0.6226,-0.6239,-0.6236,-0.6249,-0.6248,-0.6269,-0.6272,-0.6273,-0.6273,-0.6275,-0.6275,-0.628,-0.6278,-0.627,-0.627,-0.627,-0.6269,0,-0.619,-0.6188,-0.6209,-0.6213,-0.6215,-0.623,-0.6234,-0.6246,-0.6246,-0.6263,-0.6267,-0.6267,-0.6282,-0.6281,-0.6298,-0.6298,-0.6325,-0.6321,-0.6322,-0.6322,-0.634,-0.6339,-0.6399,-0.6407,-0.6352,-0.6353,-0.6353,0,-0.6216,-0.623,-0.6235,-0.6243,-0.6247,-0.626,-0.6267,-0.6263,-0.6272,-0.6281,-0.6292,-0.6306,-0.6318,-0.6342,-0.6345,-0.6358,-0.6355,-0.6375,-0.6357,-0.6359,-0.6357,-0.6356,-0.6358,-0.6379,-0.638,-0.638,-0.6381,0,-0.6262,-0.626,-0.6271,-0.6282,-0.6291,-0.63,-0.6308,-0.6315,-0.6311,-0.6322,-0.6336,-0.6345,-0.6362,-0.6377,-0.6389,-0.6394,-0.6387,-0.6386,-0.6391,-0.6394,-0.6394,-0.6396,-0.6333,-0.6385,-0.6385,-0.6384,-0.6384,-0.6384,-0.6296,-0.6309,-0.6314,-0.6327,-0.6332,-0.634,-0.6351,-0.6353,-0.6365,-0.6378,-0.6375,-0.6392,-0.64,-0.6416,-0.6421,-0.6435,-0.6428,-0.6435,-0.6437,-0.6439,-0.6442,-0.6391,-0.6437,-0.6437,-0.6437,-0.6437,-0.6437,0,-0.6343,-0.6346,-0.6358,-0.6369,-0.6379,-0.6371,-0.6379,-0.6388,-0.6403,-0.641,-0.6421,-0.6439,-0.6453,-0.6456,-0.647,-0.6481,-0.6478,-0.6485,-0.6485,-0.6486,-0.6447,-0.6442,-0.6487,-0.6487,-0.6487,-0.6487,-0.6487,-0.6487,-0.6369,-0.6389,-0.6388,-0.6411,-0.6414,-0.6431,-0.6436,-0.6443,-0.6449,-0.6469,-0.648,-0.6482,-0.6488,-0.6502,-0.6515,-0.6516,-0.6522,-0.653,-0.653,-0.6494,-0.6489,-0.6484,-0.6479,-0.6531,-0.6531,-0.6568,-0.6568,-0.6568]},{"header":{"parameterUnit":"m.s-1","parameterCategory":1,"la1":30.2991,"la2":30.254,"lo1":-89.0895,"lo2":-89.0444,"dy":0.0017,"dx":0.0017,"nx":28,"ny":28,"refTime":"2024-03-12T09:00:00:Z","depth":0,"parameterNumber":3,"parameterNumberName":"V-component_of_WINDS"},"data":[0,0,0,0,0,0,0,0,0,0,0,0,0,0,0,0,0,0,0,0,0,0,0,0,0,0,0,0,0,0,0,0,0,0,0,0,0,0,0,0,0,0,0,0,0,0,0,0,0,0,0,0,0,0,0,0,0,0,3.1337,3.1338,0,3.1362,3.1362,3.1363,3.1339,3.1338,3.1337,3.1336,3.1362,3.1364,3.1365,0,0,0,0,0,0,0,0,0,0,0,0,0,3.127,3.1271,3.1337,3.1338,3.1338,3.1362,3.1362,3.1363,3.1339,3.1338,3.1337,3.1336,3.1362,3.1363,3.1365,0,0,0,0,0,0,0,0,0,0,0,0,0,3.1297,3.1271,3.1337,3.1329,3.1329,3.1362,3.1362,3.1363,3.134,3.1338,3.1337,3.1335,3.1361,3.1363,3.1366,3.1408,0,0,3.1373,3.1374,0,0,0,0,0,0,0,0,3.1296,3.13,3.133,3.133,3.1329,3.1346,3.1348,3.1378,3.134,3.1336,3.1336,3.1335,3.1358,3.136,3.1368,3.1409,3.141,3.1373,3.1374,3.1375,3.1376,0,0,0,0,0,0,0,3.1294,3.1299,3.1347,3.1331,3.133,3.1324,3.1327,3.1353,3.1354,3.1336,3.1334,3.1337,3.1357,3.1366,3.1369,3.1411,3.1373,3.1375,3.1376,3.1377,3.1487,3.1488,0,0,0,0,0,0,3.1293,3.1297,3.1346,3.1348,3.1309,3.1327,3.1329,3.1342,3.1354,3.1354,3.1339,3.1336,3.1363,3.1366,3.1369,3.1419,3.1375,3.1377,3.1379,3.1485,3.1487,3.1489,0,0,0,0,0,0,3.1291,3.1297,3.1345,3.1322,3.1328,3.1329,3.1344,3.1343,3.1352,3.1356,3.1356,3.1347,3.1362,3.1366,3.1398,3.142,3.1379,3.1381,3.1483,3.1486,3.1488,3.152,0,0,0,0,0,0,3.129,3.1297,3.1313,3.1323,3.1329,3.1374,3.1345,3.1345,3.1356,3.1353,3.1364,3.1365,3.1361,3.1395,3.1401,3.1422,3.1382,3.1481,3.1484,3.1487,3.1517,3.1523,3.1528,0,0,0,0,0,3.1287,3.1322,3.1314,3.132,3.1349,3.1375,3.1379,3.1374,3.1358,3.1374,3.1376,3.1364,3.1416,3.1398,3.1405,3.1427,3.148,3.1484,3.1487,3.1514,3.1522,3.1528,0,0,0,0,0,0,3.1316,3.1323,3.1315,3.1353,3.1364,3.1371,3.1392,3.1382,3.1398,3.1395,3.1388,3.139,3.1424,3.1429,3.1409,3.1468,3.1446,3.145,3.1464,3.1471,3.1477,3.1475,3.1384,0,0,0,0,0,3.1326,3.1347,3.1352,3.1385,3.1391,3.139,3.1402,3.1397,3.1408,3.1412,3.1417,3.1428,3.1446,3.1459,3.1477,3.1517,3.1519,3.1536,3.1541,3.1546,3.155,3.1571,3.1578,3.15,3.15,3.15,0,0,3.1349,3.1355,3.1368,3.1391,3.1399,3.142,3.1394,3.1418,3.1434,3.1416,3.1446,3.145,3.1462,3.1498,3.1514,3.1503,3.1572,3.155,3.1554,3.1556,3.1575,3.1583,3.1589,3.1502,3.1502,3.1501,0,0,3.14,3.1407,3.1435,3.1443,3.1455,3.1454,3.1461,3.147,3.1472,3.1502,3.1489,3.1507,3.154,3.1548,3.1557,3.161,3.1599,3.1616,3.1646,3.1666,3.1672,3.1678,3.1696,3.1703,3.162,3.162,3.162,0,3.1427,3.1458,3.1451,3.1476,3.1486,3.147,3.1498,3.1506,3.1523,3.153,3.1517,3.1557,3.1564,3.1602,3.1614,3.1622,3.1629,3.1615,3.1672,3.1677,3.1682,3.17,3.1707,3.1622,3.1622,3.1622,3.1622,0,3.1489,3.1511,3.1533,3.1549,3.1561,3.1587,3.1584,3.1598,3.1592,3.1592,3.1623,3.163,3.1649,3.1657,3.1652,3.1694,3.1686,3.1673,3.165,3.1692,3.1708,3.1715,3.1625,3.1624,3.1624,3.1623,0,0,3.1561,3.1572,3.158,3.1586,3.1597,3.1614,3.1639,3.1657,3.1668,3.168,3.1701,3.1728,3.1715,3.1725,3.172,3.1738,3.1779,3.1722,3.1722,3.1732,3.1825,3.1835,3.1843,3.1772,3.1773,3.1774,3.1824,0,3.1612,3.1656,3.165,3.1691,3.1711,3.1696,3.1717,3.1726,3.1727,3.1744,3.1745,3.1764,3.1746,3.1752,3.1769,3.177,3.1798,3.1767,3.1791,3.1792,3.1788,3.1852,3.1863,3.191,3.1831,3.1832,3.1832,0,3.1678,3.1692,3.1735,3.1742,3.175,3.177,3.1785,3.1801,3.1811,3.181,3.1821,3.1812,3.1837,3.1813,3.1847,3.1826,3.1835,3.1837,3.1839,3.1841,3.1815,3.1856,3.1925,3.1932,3.1843,3.1842,3.1841,0,3.1725,3.1755,3.1784,3.179,3.1799,3.1813,3.1818,3.1826,3.1836,3.1849,3.1856,3.1872,3.1881,3.1893,3.1889,3.1872,3.1924,3.19,3.1924,3.1924,3.1935,3.1935,3.2007,3.1941,3.1941,3.1941,3.1941,0,3.1784,3.1811,3.1805,3.1823,3.1853,3.1846,3.1875,3.1878,3.1885,3.1903,3.189,3.1908,3.1901,3.1918,3.1915,3.1943,3.1947,3.1947,3.1946,3.1948,3.1948,3.1954,3.1951,3.1943,3.1943,3.1942,3.1942,0,3.1842,3.1839,3.187,3.1875,3.1877,3.1899,3.1903,3.192,3.192,3.1943,3.1948,3.1947,3.1966,3.1963,3.1984,3.1982,3.2017,3.2012,3.2014,3.2012,3.2036,3.2034,3.2115,3.2125,3.2053,3.2054,3.2055,0,3.1879,3.1899,3.1907,3.1918,3.1923,3.1941,3.1951,3.1945,3.1956,3.1968,3.1983,3.2001,3.2015,3.2046,3.2047,3.2063,3.2058,3.2085,3.206,3.2062,3.2058,3.2057,3.2058,3.209,3.2091,3.2092,3.2092,0,3.1946,3.1943,3.1958,3.1973,3.1985,3.1997,3.2007,3.2017,3.2011,3.2024,3.2043,3.2054,3.2075,3.2093,3.2107,3.2111,3.2101,3.21,3.2106,3.2109,3.2109,3.2109,3.2027,3.2098,3.2098,3.2097,3.2097,3.2097,3.1994,3.2011,3.2018,3.2036,3.2042,3.2052,3.2068,3.2069,3.2084,3.2101,3.2096,3.2117,3.2125,3.2143,3.2149,3.2166,3.2156,3.2165,3.2167,3.217,3.2172,3.2106,3.2169,3.2168,3.2168,3.2168,3.2168,0,3.206,3.2063,3.2079,3.2093,3.2107,3.2095,3.2105,3.2117,3.2136,3.2144,3.2158,3.2179,3.2196,3.2198,3.2214,3.2226,3.2222,3.2231,3.223,3.2231,3.2181,3.2173,3.2234,3.2234,3.2234,3.2234,3.2234,3.2234,3.2095,3.2123,3.2121,3.2152,3.2155,3.2176,3.2183,3.2191,3.2197,3.2222,3.2235,3.2236,3.2242,3.2258,3.2272,3.2272,3.2279,3.2289,3.2288,3.2241,3.2234,3.2228,3.2221,3.2291,3.2291,3.2336,3.2337,3.2337]}]]